Location: Joplin, MO
(37.0842°N, 94.5133°W)
Time: 20:09:01
(UTC+02:00)

Transit 2A Rocket - Pass Details

Date: 30 March 2023
Orbit: 584 x 914 km, 66.7° (Epoch: 09 June)

Event Time Altitude Azimuth Distance (km) Brightness Sun altitude
Rises 20:08:20 0° 270° (W) 3,332 8.3 56.6°
Reaches altitude 10° 20:12:47 10° 303° (WNW) 2,484 7.6 56.7°
Maximum altitude 20:14:35 11° 321° (NW) 2,413 7.4 56.7°
Drops below altitude 10° 20:16:25 10° 340° (NNW) 2,539 7.5 56.8°
Sets 20:21:09 0° 12° (NNE) 3,531 8.1 56.8°
